sat.trackr.live / text

‹ back to catalog

PRAETORIAN SDA_621

NORAD 65584 · 2025-203V

PAYLOAD ACTIVE UNKNOWN

§ Identity

Operator
Country
US
Launch date
2025-09-10
Launch site
AFWTR
Launch vehicle
Mass (kg)
RCS (m²)

Purposes: military

External: N2YO · Heavens-Above · Gunter

§ Orbital elements

Epoch: 2026-05-25T02:17:31.178400Z

Period
104.06 min
Inclination
81.3038°
Eccentricity
0.0006421
Mean motion
13.83797653 rev/d
Perigee alt
945.7 km
Apogee alt
955.2 km
Semi-major
7,328.6 km
B*
7.2267e-5
RAAN
32.0980°
Arg perigee
247.6176°
Mean anomaly
112.4300°
Rev number
3,550

§ Raw data

PRAETORIAN SDA_6211 65584U 25203V   26145.09549975  .00000092  00000+0  72267-4 0  99942 65584  81.3038  32.0980 0006421 247.6176 112.4300 13.83797653 35507

JSON: /api/v1/satellites/65584 · /tle

For live sub-satellite position, see the globe view (requires WebGL).

§ Visibility from observer

Set your observer location to see the next 7 days of passes ≥ 10°. The values pass through the URL so the page stays shareable.

No JS? Fill the form by hand. The geolocation button needs JavaScript.